Time,TemperatureF,DewpointF,PressureIn,WindDirection,WindDirectionDegrees,WindSpeedMPH,WindSpeedGustMPH,Humidity,HourlyPrecipIn,Conditions,Clouds,dailyrainin,SoftwareType,DateUTC
2013-07-21 00:01:00,65.1,63.6,29.90,SSE,157,-999.0,-999.0,94,-99.99,,,-99.99,MetarLogicWeatherSta,2013-07-21 04:01:00,
2013-07-21 00:06:00,64.7,63.2,29.90,SSE,157,-999.0,-999.0,94,-99.99,,,-99.99,MetarLogicWeatherSta,2013-07-21 04:06:00,
2013-07-21 00:11:00,64.7,63.1,29.90,SSE,157,-999.0,-999.0,94,-99.99,,,-99.99,MetarLogicWeatherSta,2013-07-21 04:11:00,
2013-07-21 00:16:00,64.4,63.0,29.90,SSE,157,-999.0,-999.0,95,-99.99,,,-99.99,MetarLogicWeatherSta,2013-07-21 04:16:00,
2013-07-21 00:21:00,64.5,63.2,29.90,SSE,157,-999.0,-999.0,95,-99.99,,,-99.99,MetarLogicWeatherSta,2013-07-21 04:21:00,
2013-07-21 00:26:00,64.5,63.2,29.90,SSE,157,-999.0,-999.0,95,-99.99,,,-99.99,MetarLogicWeatherSta,2013-07-21 04:26:00,
2013-07-21 00:31:00,64.6,63.3,29.90,South,180,-999.0,-999.0,95,-99.99,,,-99.99,MetarLogicWeatherSta,2013-07-21 04:31:00,
2013-07-21 00:36:00,64.0,62.5,29.90,SSE,157,-999.0,-999.0,94,-99.99,,,-99.99,MetarLogicWeatherSta,2013-07-21 04:36:00,
2013-07-21 00:41:00,63.9,62.5,29.90,SSE,157,-999.0,-999.0,94,-99.99,,,-99.99,MetarLogicWeatherSta,2013-07-21 04:41:00,
2013-07-21 00:46:00,63.4,62.0,29.90,SSE,157,-999.0,-999.0,95,-99.99,,,-99.99,MetarLogicWeatherSta,2013-07-21 04:46:00,
2013-07-21 00:51:00,63.4,62.2,29.90,South,180,-999.0,-999.0,95,-99.99,,,-99.99,MetarLogicWeatherSta,2013-07-21 04:51:00,
2013-07-21 00:57:00,63.3,61.9,29.91,South,180,-999.0,-999.0,95,-99.99,,,-99.99,MetarLogicWeatherSta,2013-07-21 04:57:00,
2013-07-21 01:02:00,62.8,61.5,29.91,SSE,157,-999.0,-999.0,95,-99.99,,,-99.99,MetarLogicWeatherSta,2013-07-21 05:02:00,
2013-07-21 01:07:00,62.5,61.3,29.91,SSE,157,-999.0,-999.0,95,-99.99,,,-99.99,MetarLogicWeatherSta,2013-07-21 05:07:00,
2013-07-21 01:12:00,62.5,61.2,29.91,SSE,157,-999.0,-999.0,95,-99.99,,,-99.99,MetarLogicWeatherSta,2013-07-21 05:12:00,
2013-07-21 01:17:00,62.6,61.3,29.91,South,180,-999.0,-999.0,95,-99.99,,,-99.99,MetarLogicWeatherSta,2013-07-21 05:17:00,
2013-07-21 01:22:00,62.6,61.5,29.91,South,180,-999.0,-999.0,96,-99.99,,,-99.99,MetarLogicWeatherSta,2013-07-21 05:22:00,
2013-07-21 01:27:00,62.5,61.4,29.92,South,180,-999.0,-999.0,96,-99.99,,,-99.99,MetarLogicWeatherSta,2013-07-21 05:27:00,
2013-07-21 01:32:00,62.5,61.4,29.92,South,180,-999.0,-999.0,96,-99.99,,,-99.99,MetarLogicWeatherSta,2013-07-21 05:32:00,
2013-07-21 01:37:00,62.2,61.0,29.91,SSE,157,-999.0,-999.0,96,-99.99,,,-99.99,MetarLogicWeatherSta,2013-07-21 05:37:00,
2013-07-21 01:42:00,62.3,61.1,29.91,SSE,157,-999.0,-999.0,96,-99.99,,,-99.99,MetarLogicWeatherSta,2013-07-21 05:42:00,
2013-07-21 01:50:00,62.4,61.4,29.92,South,180,-999.0,-999.0,96,-99.99,,,-99.99,MetarLogicWeatherSta,2013-07-21 05:50:00,
2013-07-21 01:55:00,62.2,60.9,29.92,SSE,157,-999.0,-999.0,95,-99.99,,,-99.99,MetarLogicWeatherSta,2013-07-21 05:55:00,
2013-07-21 02:00:00,62.1,61.2,29.92,SSE,157,-999.0,-999.0,96,-99.99,,,-99.99,MetarLogicWeatherSta,2013-07-21 06:00:00,
2013-07-21 02:05:00,62.0,61.0,29.92,SSE,157,-999.0,-999.0,96,-99.99,,,-99.99,MetarLogicWeatherSta,2013-07-21 06:05:00,
2013-07-21 02:10:00,62.1,61.2,29.92,SSE,157,-999.0,-999.0,96,-99.99,,,-99.99,MetarLogicWeatherSta,2013-07-21 06:10:00,
2013-07-21 02:15:00,62.2,61.1,29.92,SSE,157,-999.0,-999.0,96,-99.99,,,-99.99,MetarLogicWeatherSta,2013-07-21 06:15:00,
2013-07-21 02:20:00,62.0,61.1,29.92,SSE,157,-999.0,-999.0,96,-99.99,,,-99.99,MetarLogicWeatherSta,2013-07-21 06:20:00,
2013-07-21 02:25:00,62.1,61.2,29.92,SSE,157,-999.0,-999.0,96,-99.99,,,-99.99,MetarLogicWeatherSta,2013-07-21 06:25:00,
2013-07-21 02:30:00,61.8,60.9,29.92,South,180,-999.0,-999.0,96,-99.99,,,-99.99,MetarLogicWeatherSta,2013-07-21 06:30:00,
2013-07-21 02:35:00,61.6,60.6,29.92,SSE,157,-999.0,-999.0,96,-99.99,,,-99.99,MetarLogicWeatherSta,2013-07-21 06:35:00,
2013-07-21 02:40:00,61.6,60.7,29.92,SSE,157,-999.0,-999.0,96,-99.99,,,-99.99,MetarLogicWeatherSta,2013-07-21 06:40:00,
2013-07-21 02:45:00,61.4,60.4,29.93,SSE,157,-999.0,-999.0,96,-99.99,,,-99.99,MetarLogicWeatherSta,2013-07-21 06:45:00,
2013-07-21 02:50:00,61.3,60.3,29.92,SSE,157,-999.0,-999.0,96,-99.99,,,-99.99,MetarLogicWeatherSta,2013-07-21 06:50:00,
2013-07-21 02:55:00,61.4,60.6,29.92,SSE,157,-999.0,-999.0,97,-99.99,,,-99.99,MetarLogicWeatherSta,2013-07-21 06:55:00,
2013-07-21 03:00:00,61.4,60.7,29.92,South,180,-999.0,-999.0,97,-99.99,,,-99.99,MetarLogicWeatherSta,2013-07-21 07:00:00,
2013-07-21 03:05:00,61.4,60.5,29.92,South,180,-999.0,-999.0,97,-99.99,,,-99.99,MetarLogicWeatherSta,2013-07-21 07:05:00,
2013-07-21 03:10:00,61.4,60.5,29.92,South,180,-999.0,-999.0,97,-99.99,,,-99.99,MetarLogicWeatherSta,2013-07-21 07:10:00,
2013-07-21 03:15:00,61.4,60.6,29.93,South,180,-999.0,-999.0,97,-99.99,,,-99.99,MetarLogicWeatherSta,2013-07-21 07:15:00,
2013-07-21 03:20:00,61.3,60.5,29.92,South,180,-999.0,-999.0,97,-99.99,,,-99.99,MetarLogicWeatherSta,2013-07-21 07:20:00,
2013-07-21 03:25:00,61.4,60.6,29.93,SSE,157,-999.0,-999.0,97,-99.99,,,-99.99,MetarLogicWeatherSta,2013-07-21 07:25:00,
2013-07-21 03:30:00,61.5,60.9,29.93,SSE,157,-999.0,-999.0,97,-99.99,,,-99.99,MetarLogicWeatherSta,2013-07-21 07:30:00,
2013-07-21 03:35:00,61.6,61.0,29.93,SE,135,-999.0,-999.0,98,-99.99,,,-99.99,MetarLogicWeatherSta,2013-07-21 07:35:00,
2013-07-21 03:40:00,61.8,61.0,29.93,SSE,157,-999.0,-999.0,97,-99.99,,,-99.99,MetarLogicWeatherSta,2013-07-21 07:40:00,
2013-07-21 03:45:00,61.7,61.1,29.93,SSE,157,-999.0,-999.0,97,-99.99,,,-99.99,MetarLogicWeatherSta,2013-07-21 07:45:00,
2013-07-21 03:50:00,61.9,61.2,29.93,SSE,157,-999.0,-999.0,97,-99.99,,,-99.99,MetarLogicWeatherSta,2013-07-21 07:50:00,
2013-07-21 03:55:00,61.9,61.3,29.94,SSE,157,-999.0,-999.0,97,-99.99,,,-99.99,MetarLogicWeatherSta,2013-07-21 07:55:00,
2013-07-21 04:00:00,61.9,61.3,29.94,SSE,157,-999.0,-999.0,97,-99.99,,,-99.99,MetarLogicWeatherSta,2013-07-21 08:00:00,
2013-07-21 04:06:00,61.9,61.4,29.94,SSE,157,-999.0,-999.0,98,-99.99,,,-99.99,MetarLogicWeatherSta,2013-07-21 08:06:00,
2013-07-21 04:11:00,62.1,61.5,29.94,SSE,157,-999.0,-999.0,97,-99.99,,,-99.99,MetarLogicWeatherSta,2013-07-21 08:11:00,
2013-07-21 04:16:00,62.2,61.6,29.94,SSE,157,-999.0,-999.0,97,-99.99,,,-99.99,MetarLogicWeatherSta,2013-07-21 08:16:00,
2013-07-21 04:21:00,62.0,61.5,29.94,SSE,157,-999.0,-999.0,98,-99.99,,,-99.99,MetarLogicWeatherSta,2013-07-21 08:21:00,
2013-07-21 04:26:00,62.1,61.6,29.94,South,180,-999.0,-999.0,98,-99.99,,,-99.99,MetarLogicWeatherSta,2013-07-21 08:26:00,
2013-07-21 04:31:00,62.2,61.7,29.94,SSE,157,-999.0,-999.0,98,-99.99,,,-99.99,MetarLogicWeatherSta,2013-07-21 08:31:00,
2013-07-21 04:36:00,62.0,61.5,29.94,SSE,157,-999.0,-999.0,98,-99.99,,,-99.99,MetarLogicWeatherSta,2013-07-21 08:36:00,
2013-07-21 04:41:00,62.0,61.5,29.94,SSE,157,-999.0,-999.0,98,-99.99,,,-99.99,MetarLogicWeatherSta,2013-07-21 08:41:00,
2013-07-21 04:46:00,62.2,61.5,29.94,SSE,157,-999.0,-999.0,97,-99.99,,,-99.99,MetarLogicWeatherSta,2013-07-21 08:46:00,
2013-07-21 04:51:00,61.9,61.3,29.94,SSE,157,-999.0,-999.0,98,-99.99,,,-99.99,MetarLogicWeatherSta,2013-07-21 08:51:00,
2013-07-21 04:56:00,61.9,61.4,29.95,SSE,157,-999.0,-999.0,98,-99.99,,,-99.99,MetarLogicWeatherSta,2013-07-21 08:56:00,
2013-07-21 05:01:00,61.9,61.4,29.95,SSE,157,-999.0,-999.0,98,-99.99,,,-99.99,MetarLogicWeatherSta,2013-07-21 09:01:00,
2013-07-21 05:06:00,61.9,61.5,29.94,SSE,157,-999.0,-999.0,98,-99.99,,,-99.99,MetarLogicWeatherSta,2013-07-21 09:06:00,
2013-07-21 05:11:00,61.9,61.3,29.94,SSE,157,-999.0,-999.0,98,-99.99,,,-99.99,MetarLogicWeatherSta,2013-07-21 09:11:00,
2013-07-21 05:16:00,61.9,61.3,29.95,SSE,157,-999.0,-999.0,97,-99.99,,,-99.99,MetarLogicWeatherSta,2013-07-21 09:16:00,
2013-07-21 05:21:00,62.0,61.5,29.95,SSE,157,-999.0,-999.0,98,-99.99,,,-99.99,MetarLogicWeatherSta,2013-07-21 09:21:00,
2013-07-21 05:26:00,61.9,61.4,29.95,SSE,157,-999.0,-999.0,98,-99.99,,,-99.99,MetarLogicWeatherSta,2013-07-21 09:26:00,
2013-07-21 05:31:00,61.7,61.0,29.95,SSE,157,-999.0,-999.0,97,-99.99,,,-99.99,MetarLogicWeatherSta,2013-07-21 09:31:00,
2013-07-21 05:36:00,61.5,60.8,29.94,SSE,157,-999.0,-999.0,97,-99.99,,,-99.99,MetarLogicWeatherSta,2013-07-21 09:36:00,
2013-07-21 05:43:00,61.3,60.7,29.94,SSE,157,-999.0,-999.0,97,-99.99,,,-99.99,MetarLogicWeatherSta,2013-07-21 09:43:00,
2013-07-21 05:48:00,61.0,60.4,29.95,South,180,-999.0,-999.0,97,-99.99,,,-99.99,MetarLogicWeatherSta,2013-07-21 09:48:00,
2013-07-21 05:53:00,60.7,60.1,29.96,SSE,157,-999.0,-999.0,97,-99.99,,,-99.99,MetarLogicWeatherSta,2013-07-21 09:53:00,
2013-07-21 05:58:00,60.6,59.9,29.96,SSE,157,-999.0,-999.0,97,-99.99,,,-99.99,MetarLogicWeatherSta,2013-07-21 09:58:00,
2013-07-21 06:03:00,60.3,59.7,29.96,SSE,157,-999.0,-999.0,98,-99.99,,,-99.99,MetarLogicWeatherSta,2013-07-21 10:03:00,
2013-07-21 06:08:00,60.4,59.8,29.96,SSE,157,-999.0,-999.0,98,-99.99,,,-99.99,MetarLogicWeatherSta,2013-07-21 10:08:00,
2013-07-21 06:13:00,60.2,59.6,29.96,SSE,157,-999.0,-999.0,98,-99.99,,,-99.99,MetarLogicWeatherSta,2013-07-21 10:13:00,
2013-07-21 06:20:00,60.1,59.6,29.96,SSE,157,-999.0,-999.0,98,-99.99,,,-99.99,MetarLogicWeatherSta,2013-07-21 10:20:00,
2013-07-21 06:25:00,60.2,59.8,29.96,SSE,157,-999.0,-999.0,98,-99.99,,,-99.99,MetarLogicWeatherSta,2013-07-21 10:25:00,
2013-07-21 06:30:00,60.1,59.6,29.96,SSE,157,-999.0,-999.0,98,-99.99,,,-99.99,MetarLogicWeatherSta,2013-07-21 10:30:00,
2013-07-21 06:35:00,60.5,60.1,29.96,SSE,157,-999.0,-999.0,98,-99.99,,,-99.99,MetarLogicWeatherSta,2013-07-21 10:35:00,
2013-07-21 06:43:00,60.5,60.0,29.96,SSE,157,-999.0,-999.0,98,-99.99,,,-99.99,MetarLogicWeatherSta,2013-07-21 10:43:00,
2013-07-21 06:48:00,60.4,60.0,29.96,SSE,157,-999.0,-999.0,98,-99.99,,,-99.99,MetarLogicWeatherSta,2013-07-21 10:48:00,
2013-07-21 06:53:00,60.7,60.3,29.97,SSE,157,-999.0,-999.0,98,-99.99,,,-99.99,MetarLogicWeatherSta,2013-07-21 10:53:00,
2013-07-21 06:58:00,60.9,60.4,29.98,SSE,157,-999.0,-999.0,98,-99.99,,,-99.99,MetarLogicWeatherSta,2013-07-21 10:58:00,
2013-07-21 07:03:00,61.1,60.8,29.97,SSE,157,-999.0,-999.0,98,-99.99,,,-99.99,MetarLogicWeatherSta,2013-07-21 11:03:00,
2013-07-21 07:08:00,61.4,61.3,29.98,SSE,157,-999.0,-999.0,99,-99.99,,,-99.99,MetarLogicWeatherSta,2013-07-21 11:08:00,
2013-07-21 07:13:00,61.7,61.4,29.98,SSE,157,-999.0,-999.0,98,-99.99,,,-99.99,MetarLogicWeatherSta,2013-07-21 11:13:00,
2013-07-21 07:18:00,62.1,62.0,29.98,SSE,157,-999.0,-999.0,99,-99.99,,,-99.99,MetarLogicWeatherSta,2013-07-21 11:18:00,
2013-07-21 07:23:00,62.3,62.0,29.98,SSE,157,-999.0,-999.0,99,-99.99,,,-99.99,MetarLogicWeatherSta,2013-07-21 11:23:00,
2013-07-21 07:28:00,62.4,62.3,29.98,SSE,157,-999.0,-999.0,99,-99.99,,,-99.99,MetarLogicWeatherSta,2013-07-21 11:28:00,
2013-07-21 07:33:00,62.6,62.4,29.98,SSE,157,-999.0,-999.0,99,-99.99,,,-99.99,MetarLogicWeatherSta,2013-07-21 11:33:00,
2013-07-21 07:38:00,62.8,62.5,29.98,SSE,157,-999.0,-999.0,99,-99.99,,,-99.99,MetarLogicWeatherSta,2013-07-21 11:38:00,
2013-07-21 07:43:00,62.8,62.5,29.98,South,180,-999.0,-999.0,98,-99.99,,,-99.99,MetarLogicWeatherSta,2013-07-21 11:43:00,
2013-07-21 07:48:00,62.8,62.5,29.98,South,180,-999.0,-999.0,98,-99.99,,,-99.99,MetarLogicWeatherSta,2013-07-21 11:48:00,
2013-07-21 07:53:00,62.8,62.5,29.99,SSE,157,-999.0,-999.0,99,-99.99,,,-99.99,MetarLogicWeatherSta,2013-07-21 11:53:00,
2013-07-21 07:58:00,62.8,62.3,29.99,South,180,-999.0,-999.0,98,-99.99,,,-99.99,MetarLogicWeatherSta,2013-07-21 11:58:00,
2013-07-21 08:03:00,63.2,62.8,29.99,SSE,157,-999.0,-999.0,98,-99.99,,,-99.99,MetarLogicWeatherSta,2013-07-21 12:03:00,
2013-07-21 08:08:00,63.6,63.4,29.99,SSE,157,-999.0,-999.0,99,-99.99,,,-99.99,MetarLogicWeatherSta,2013-07-21 12:08:00,
2013-07-21 08:13:00,64.1,64.0,29.99,SSE,157,-999.0,-999.0,99,-99.99,,,-99.99,MetarLogicWeatherSta,2013-07-21 12:13:00,
2013-07-21 08:18:00,64.5,64.1,29.99,ENE,67,-999.0,-999.0,98,-99.99,,,-99.99,MetarLogicWeatherSta,2013-07-21 12:18:00,
2013-07-21 08:23:00,64.4,63.7,29.99,SW,225,-999.0,-999.0,97,-99.99,,,-99.99,MetarLogicWeatherSta,2013-07-21 12:23:00,
2013-07-21 08:28:00,64.1,63.1,30.00,SSE,157,-999.0,-999.0,96,-99.99,,,-99.99,MetarLogicWeatherSta,2013-07-21 12:28:00,
2013-07-21 08:33:00,64.1,63.1,30.00,South,180,-999.0,-999.0,96,-99.99,,,-99.99,MetarLogicWeatherSta,2013-07-21 12:33:00,
2013-07-21 08:38:00,64.3,63.5,30.00,SSE,157,-999.0,-999.0,97,-99.99,,,-99.99,MetarLogicWeatherSta,2013-07-21 12:38:00,
2013-07-21 08:43:00,64.9,64.3,30.01,SE,135,-999.0,-999.0,97,-99.99,,,-99.99,MetarLogicWeatherSta,2013-07-21 12:43:00,
2013-07-21 08:48:00,65.4,64.4,30.00,SSE,157,-999.0,-999.0,96,-99.99,,,-99.99,MetarLogicWeatherSta,2013-07-21 12:48:00,
2013-07-21 08:53:00,66.3,64.6,30.00,South,180,-999.0,-999.0,94,-99.99,,,-99.99,MetarLogicWeatherSta,2013-07-21 12:53:00,
2013-07-21 08:58:00,65.9,63.3,30.00,South,180,-999.0,-999.0,91,-99.99,,,-99.99,MetarLogicWeatherSta,2013-07-21 12:58:00,
2013-07-21 09:03:00,66.4,63.8,30.01,SW,225,-999.0,-999.0,91,-99.99,,,-99.99,MetarLogicWeatherSta,2013-07-21 13:03:00,
2013-07-21 09:08:00,66.3,63.7,30.00,West,270,-999.0,-999.0,91,-99.99,,,-99.99,MetarLogicWeatherSta,2013-07-21 13:08:00,
2013-07-21 09:13:00,66.4,63.0,30.01,SSE,157,-999.0,-999.0,88,-99.99,,,-99.99,MetarLogicWeatherSta,2013-07-21 13:13:00,
2013-07-21 09:18:00,66.6,63.3,30.01,SSE,157,-999.0,-999.0,89,-99.99,,,-99.99,MetarLogicWeatherSta,2013-07-21 13:18:00,
2013-07-21 09:23:00,67.1,63.5,30.01,ESE,112,-999.0,-999.0,88,-99.99,,,-99.99,MetarLogicWeatherSta,2013-07-21 13:23:00,
2013-07-21 09:28:00,67.4,63.3,30.01,SSW,202,-999.0,-999.0,86,-99.99,,,-99.99,MetarLogicWeatherSta,2013-07-21 13:28:00,
2013-07-21 09:33:00,67.3,62.8,30.01,WSW,247,-999.0,-999.0,85,-99.99,,,-99.99,MetarLogicWeatherSta,2013-07-21 13:33:00,
2013-07-21 09:38:00,67.4,62.9,30.01,SE,135,-999.0,-999.0,85,-99.99,,,-99.99,MetarLogicWeatherSta,2013-07-21 13:38:00,
2013-07-21 09:43:00,67.8,63.5,30.01,SW,225,-999.0,-999.0,86,-99.99,,,-99.99,MetarLogicWeatherSta,2013-07-21 13:43:00,
2013-07-21 09:48:00,67.7,62.6,30.01,NE,45,-999.0,-999.0,83,-99.99,,,-99.99,MetarLogicWeatherSta,2013-07-21 13:48:00,
2013-07-21 09:53:00,67.7,62.4,30.01,South,180,-999.0,-999.0,82,-99.99,,,-99.99,MetarLogicWeatherSta,2013-07-21 13:53:00,
2013-07-21 09:58:00,68.4,63.5,30.01,SE,135,-999.0,-999.0,83,-99.99,,,-99.99,MetarLogicWeatherSta,2013-07-21 13:58:00,
2013-07-21 10:03:00,69.2,63.4,30.02,SE,135,-999.0,-999.0,81,-99.99,,,-99.99,MetarLogicWeatherSta,2013-07-21 14:03:00,
2013-07-21 10:08:00,69.6,63.2,30.01,SE,135,-999.0,-999.0,79,-99.99,,,-99.99,MetarLogicWeatherSta,2013-07-21 14:08:00,
2013-07-21 10:13:00,69.7,62.6,30.01,East,90,-999.0,-999.0,77,-99.99,,,-99.99,MetarLogicWeatherSta,2013-07-21 14:13:00,
2013-07-21 10:18:00,69.7,62.8,30.01,NE,45,-999.0,-999.0,78,-99.99,,,-99.99,MetarLogicWeatherSta,2013-07-21 14:18:00,
2013-07-21 10:23:00,70.0,63.1,30.01,SSE,157,-999.0,-999.0,78,-99.99,,,-99.99,MetarLogicWeatherSta,2013-07-21 14:23:00,
2013-07-21 10:28:00,70.5,63.3,30.01,South,180,-999.0,-999.0,77,-99.99,,,-99.99,MetarLogicWeatherSta,2013-07-21 14:28:00,
2013-07-21 10:33:00,70.9,63.3,30.01,ESE,112,-999.0,-999.0,76,-99.99,,,-99.99,MetarLogicWeatherSta,2013-07-21 14:33:00,
2013-07-21 10:38:00,70.9,62.4,30.01,ESE,112,-999.0,-999.0,74,-99.99,,,-99.99,MetarLogicWeatherSta,2013-07-21 14:38:00,
2013-07-21 10:43:00,70.9,63.0,30.01,ENE,67,-999.0,-999.0,75,-99.99,,,-99.99,MetarLogicWeatherSta,2013-07-21 14:43:00,
2013-07-21 10:48:00,71.0,62.8,30.02,South,180,-999.0,-999.0,75,-99.99,,,-99.99,MetarLogicWeatherSta,2013-07-21 14:48:00,
2013-07-21 10:53:00,70.9,62.9,30.02,SE,135,-999.0,-999.0,75,-99.99,,,-99.99,MetarLogicWeatherSta,2013-07-21 14:53:00,
2013-07-21 10:58:00,71.1,63.5,30.02,SSE,157,-999.0,-999.0,76,-99.99,,,-99.99,MetarLogicWeatherSta,2013-07-21 14:58:00,
2013-07-21 11:03:00,71.5,63.5,30.02,ENE,67,-999.0,-999.0,75,-99.99,,,-99.99,MetarLogicWeatherSta,2013-07-21 15:03:00,
2013-07-21 11:08:00,71.7,63.2,30.02,South,180,-999.0,-999.0,74,-99.99,,,-99.99,MetarLogicWeatherSta,2013-07-21 15:08:00,
2013-07-21 11:13:00,72.3,63.7,30.02,South,180,-999.0,-999.0,73,-99.99,,,-99.99,MetarLogicWeatherSta,2013-07-21 15:13:00,
2013-07-21 11:18:00,72.3,63.1,30.02,SE,135,-999.0,-999.0,72,-99.99,,,-99.99,MetarLogicWeatherSta,2013-07-21 15:18:00,
2013-07-21 11:23:00,72.4,63.7,30.02,SSW,202,-999.0,-999.0,73,-99.99,,,-99.99,MetarLogicWeatherSta,2013-07-21 15:23:00,
2013-07-21 11:28:00,72.7,63.2,30.02,SE,135,-999.0,-999.0,71,-99.99,,,-99.99,MetarLogicWeatherSta,2013-07-21 15:28:00,
2013-07-21 11:33:00,72.8,63.2,30.02,ENE,67,-999.0,-999.0,71,-99.99,,,-99.99,MetarLogicWeatherSta,2013-07-21 15:33:00,
2013-07-21 11:39:00,73.0,62.5,30.01,SE,135,-999.0,-999.0,69,-99.99,,,-99.99,MetarLogicWeatherSta,2013-07-21 15:39:00,
2013-07-21 11:44:00,72.9,61.9,30.02,SW,225,-999.0,-999.0,67,-99.99,,,-99.99,MetarLogicWeatherSta,2013-07-21 15:44:00,
2013-07-21 11:49:00,73.0,63.2,30.02,East,90,-999.0,-999.0,71,-99.99,,,-99.99,MetarLogicWeatherSta,2013-07-21 15:49:00,
2013-07-21 11:54:00,73.2,64.1,30.02,SSE,157,-999.0,-999.0,72,-99.99,,,-99.99,MetarLogicWeatherSta,2013-07-21 15:54:00,
2013-07-21 11:59:00,74.0,64.1,30.02,SW,225,-999.0,-999.0,70,-99.99,,,-99.99,MetarLogicWeatherSta,2013-07-21 15:59:00,
2013-07-21 12:04:00,74.2,64.2,30.02,ESE,112,-999.0,-999.0,70,-99.99,,,-99.99,MetarLogicWeatherSta,2013-07-21 16:04:00,
2013-07-21 12:09:00,74.5,62.7,30.02,South,180,-999.0,-999.0,66,-99.99,,,-99.99,MetarLogicWeatherSta,2013-07-21 16:09:00,
2013-07-21 12:14:00,74.8,63.7,30.02,SSE,157,-999.0,-999.0,68,-99.99,,,-99.99,MetarLogicWeatherSta,2013-07-21 16:14:00,
2013-07-21 12:19:00,74.6,63.1,30.02,South,180,-999.0,-999.0,66,-99.99,,,-99.99,MetarLogicWeatherSta,2013-07-21 16:19:00,
2013-07-21 12:24:00,74.6,63.9,30.01,SSE,157,-999.0,-999.0,68,-99.99,,,-99.99,MetarLogicWeatherSta,2013-07-21 16:24:00,
2013-07-21 12:29:00,74.7,63.6,30.01,SE,135,-999.0,-999.0,68,-99.99,,,-99.99,MetarLogicWeatherSta,2013-07-21 16:29:00,
2013-07-21 12:34:00,75.0,62.6,30.02,SW,225,-999.0,-999.0,64,-99.99,,,-99.99,MetarLogicWeatherSta,2013-07-21 16:34:00,
2013-07-21 12:39:00,75.0,63.5,30.02,SSW,202,-999.0,-999.0,66,-99.99,,,-99.99,MetarLogicWeatherSta,2013-07-21 16:39:00,
2013-07-21 12:44:00,75.2,63.4,30.01,WSW,247,-999.0,-999.0,66,-99.99,,,-99.99,MetarLogicWeatherSta,2013-07-21 16:44:00,
2013-07-21 12:49:00,75.0,64.1,30.01,South,180,-999.0,-999.0,68,-99.99,,,-99.99,MetarLogicWeatherSta,2013-07-21 16:49:00,
2013-07-21 12:54:00,74.5,62.7,30.01,East,90,-999.0,-999.0,66,-99.99,,,-99.99,MetarLogicWeatherSta,2013-07-21 16:54:00,
2013-07-21 12:59:00,74.7,63.5,30.02,South,180,-999.0,-999.0,67,-99.99,,,-99.99,MetarLogicWeatherSta,2013-07-21 16:59:00,
2013-07-21 13:04:00,74.6,61.3,30.01,WSW,247,-999.0,-999.0,62,-99.99,,,-99.99,MetarLogicWeatherSta,2013-07-21 17:04:00,
2013-07-21 13:09:00,74.6,62.8,30.01,SSE,157,-999.0,-999.0,66,-99.99,,,-99.99,MetarLogicWeatherSta,2013-07-21 17:09:00,
2013-07-21 13:14:00,74.9,62.4,30.01,South,180,-999.0,-999.0,64,-99.99,,,-99.99,MetarLogicWeatherSta,2013-07-21 17:14:00,
2013-07-21 13:19:00,74.8,62.8,30.01,ESE,112,-999.0,-999.0,65,-99.99,,,-99.99,MetarLogicWeatherSta,2013-07-21 17:19:00,
2013-07-21 13:24:00,74.5,61.9,30.01,East,90,-999.0,-999.0,64,-99.99,,,-99.99,MetarLogicWeatherSta,2013-07-21 17:24:00,
2013-07-21 13:29:00,75.0,63.8,30.01,SE,135,-999.0,-999.0,67,-99.99,,,-99.99,MetarLogicWeatherSta,2013-07-21 17:29:00,
2013-07-21 13:34:00,75.8,64.5,30.02,East,90,-999.0,-999.0,67,-99.99,,,-99.99,MetarLogicWeatherSta,2013-07-21 17:34:00,
2013-07-21 13:41:00,75.9,63.3,30.02,South,180,-999.0,-999.0,64,-99.99,,,-99.99,MetarLogicWeatherSta,2013-07-21 17:41:00,
2013-07-21 13:46:00,75.7,63.9,30.02,South,180,-999.0,-999.0,66,-99.99,,,-99.99,MetarLogicWeatherSta,2013-07-21 17:46:00,
2013-07-21 13:51:00,76.3,64.1,30.01,SSE,157,-999.0,-999.0,65,-99.99,,,-99.99,MetarLogicWeatherSta,2013-07-21 17:51:00,
2013-07-21 13:56:00,76.8,63.8,30.01,ESE,112,-999.0,-999.0,63,-99.99,,,-99.99,MetarLogicWeatherSta,2013-07-21 17:56:00,
2013-07-21 14:02:00,76.6,62.5,30.01,NE,45,-999.0,-999.0,61,-99.99,,,-99.99,MetarLogicWeatherSta,2013-07-21 18:02:00,
2013-07-21 14:07:00,75.9,63.5,30.01,South,180,-999.0,-999.0,64,-99.99,,,-99.99,MetarLogicWeatherSta,2013-07-21 18:07:00,
2013-07-21 14:12:00,75.8,61.9,30.01,South,180,-999.0,-999.0,61,-99.99,,,-99.99,MetarLogicWeatherSta,2013-07-21 18:12:00,
2013-07-21 14:17:00,75.5,62.2,30.01,South,180,-999.0,-999.0,63,-99.99,,,-99.99,MetarLogicWeatherSta,2013-07-21 18:17:00,
2013-07-21 14:24:00,75.5,61.7,30.01,SW,225,-999.0,-999.0,61,-99.99,,,-99.99,MetarLogicWeatherSta,2013-07-21 18:24:00,
2013-07-21 14:29:00,75.6,62.6,30.01,South,180,-999.0,-999.0,63,-99.99,,,-99.99,MetarLogicWeatherSta,2013-07-21 18:29:00,
2013-07-21 14:34:00,76.2,63.7,30.00,East,90,-999.0,-999.0,64,-99.99,,,-99.99,MetarLogicWeatherSta,2013-07-21 18:34:00,
2013-07-21 14:39:00,76.6,63.1,30.01,East,90,-999.0,-999.0,62,-99.99,,,-99.99,MetarLogicWeatherSta,2013-07-21 18:39:00,
2013-07-21 14:44:00,76.4,62.8,30.01,SE,135,-999.0,-999.0,62,-99.99,,,-99.99,MetarLogicWeatherSta,2013-07-21 18:44:00,
2013-07-21 14:49:00,76.6,63.6,30.00,South,180,-999.0,-999.0,63,-99.99,,,-99.99,MetarLogicWeatherSta,2013-07-21 18:49:00,
2013-07-21 14:54:00,76.6,63.5,30.00,WSW,247,-999.0,-999.0,63,-99.99,,,-99.99,MetarLogicWeatherSta,2013-07-21 18:54:00,
2013-07-21 14:59:00,75.9,61.0,30.00,WSW,247,-999.0,-999.0,59,-99.99,,,-99.99,MetarLogicWeatherSta,2013-07-21 18:59:00,
2013-07-21 15:04:00,75.5,61.7,29.99,SSW,202,-999.0,-999.0,61,-99.99,,,-99.99,MetarLogicWeatherSta,2013-07-21 19:04:00,
2013-07-21 15:09:00,75.3,60.2,29.99,South,180,-999.0,-999.0,59,-99.99,,,-99.99,MetarLogicWeatherSta,2013-07-21 19:09:00,
2013-07-21 15:14:00,75.1,63.0,29.99,South,180,-999.0,-999.0,65,-99.99,,,-99.99,MetarLogicWeatherSta,2013-07-21 19:14:00,
2013-07-21 15:19:00,75.6,62.0,29.99,SSE,157,-999.0,-999.0,62,-99.99,,,-99.99,MetarLogicWeatherSta,2013-07-21 19:19:00,
2013-07-21 15:24:00,75.9,61.1,29.99,South,180,-999.0,-999.0,59,-99.99,,,-99.99,MetarLogicWeatherSta,2013-07-21 19:24:00,
2013-07-21 15:29:00,75.9,60.9,29.99,South,180,-999.0,-999.0,59,-99.99,,,-99.99,MetarLogicWeatherSta,2013-07-21 19:29:00,
2013-07-21 15:34:00,75.6,60.3,29.99,South,180,-999.0,-999.0,58,-99.99,,,-99.99,MetarLogicWeatherSta,2013-07-21 19:34:00,
2013-07-21 15:39:00,75.6,62.5,29.99,South,180,-999.0,-999.0,63,-99.99,,,-99.99,MetarLogicWeatherSta,2013-07-21 19:39:00,
2013-07-21 15:44:00,75.8,61.5,29.99,WSW,247,-999.0,-999.0,60,-99.99,,,-99.99,MetarLogicWeatherSta,2013-07-21 19:44:00,
2013-07-21 15:49:00,75.2,60.5,29.99,WSW,247,-999.0,-999.0,59,-99.99,,,-99.99,MetarLogicWeatherSta,2013-07-21 19:49:00,
2013-07-21 15:54:00,74.9,60.8,29.98,South,180,-999.0,-999.0,61,-99.99,,,-99.99,MetarLogicWeatherSta,2013-07-21 19:54:00,
2013-07-21 15:59:00,74.5,62.1,29.99,SSE,157,-999.0,-999.0,64,-99.99,,,-99.99,MetarLogicWeatherSta,2013-07-21 19:59:00,
2013-07-21 16:04:00,74.4,60.5,29.98,South,180,-999.0,-999.0,61,-99.99,,,-99.99,MetarLogicWeatherSta,2013-07-21 20:04:00,
2013-07-21 16:09:00,74.1,60.1,29.98,South,180,-999.0,-999.0,61,-99.99,,,-99.99,MetarLogicWeatherSta,2013-07-21 20:09:00,
2013-07-21 16:14:00,73.9,59.9,29.98,South,180,-999.0,-999.0,61,-99.99,,,-99.99,MetarLogicWeatherSta,2013-07-21 20:14:00,
2013-07-21 16:19:00,73.7,60.2,29.98,NNW,337,-999.0,-999.0,62,-99.99,,,-99.99,MetarLogicWeatherSta,2013-07-21 20:19:00,
2013-07-21 16:24:00,73.3,59.4,29.98,SW,225,-999.0,-999.0,61,-99.99,,,-99.99,MetarLogicWeatherSta,2013-07-21 20:24:00,
2013-07-21 16:29:00,72.9,60.6,29.98,South,180,-999.0,-999.0,65,-99.99,,,-99.99,MetarLogicWeatherSta,2013-07-21 20:29:00,
2013-07-21 16:34:00,72.8,60.5,29.99,South,180,-999.0,-999.0,65,-99.99,,,-99.99,MetarLogicWeatherSta,2013-07-21 20:34:00,
2013-07-21 16:39:00,72.7,60.1,29.99,South,180,-999.0,-999.0,64,-99.99,,,-99.99,MetarLogicWeatherSta,2013-07-21 20:39:00,
2013-07-21 16:44:00,72.6,60.8,29.98,South,180,-999.0,-999.0,66,-99.99,,,-99.99,MetarLogicWeatherSta,2013-07-21 20:44:00,
2013-07-21 16:49:00,72.3,59.9,29.98,South,180,-999.0,-999.0,64,-99.99,,,-99.99,MetarLogicWeatherSta,2013-07-21 20:49:00,
2013-07-21 16:55:00,72.2,60.3,29.98,South,180,-999.0,-999.0,65,-99.99,,,-99.99,MetarLogicWeatherSta,2013-07-21 20:55:00,
2013-07-21 17:00:00,71.7,60.0,29.98,South,180,-999.0,-999.0,66,-99.99,,,-99.99,MetarLogicWeatherSta,2013-07-21 21:00:00,
2013-07-21 17:05:00,71.8,60.3,29.98,SSE,157,-999.0,-999.0,66,-99.99,,,-99.99,MetarLogicWeatherSta,2013-07-21 21:05:00,
2013-07-21 17:10:00,71.5,58.9,29.98,SW,225,-999.0,-999.0,63,-99.99,,,-99.99,MetarLogicWeatherSta,2013-07-21 21:10:00,
2013-07-21 17:15:00,71.3,60.1,29.98,SSE,157,-999.0,-999.0,67,-99.99,,,-99.99,MetarLogicWeatherSta,2013-07-21 21:15:00,
2013-07-21 17:20:00,71.1,59.5,29.98,South,180,-999.0,-999.0,66,-99.99,,,-99.99,MetarLogicWeatherSta,2013-07-21 21:20:00,
2013-07-21 17:25:00,70.9,59.9,29.98,South,180,-999.0,-999.0,67,-99.99,,,-99.99,MetarLogicWeatherSta,2013-07-21 21:25:00,
2013-07-21 17:30:00,70.9,59.5,29.98,SW,225,-999.0,-999.0,66,-99.99,,,-99.99,MetarLogicWeatherSta,2013-07-21 21:30:00,
2013-07-21 17:35:00,70.6,59.3,29.98,SSW,202,-999.0,-999.0,66,-99.99,,,-99.99,MetarLogicWeatherSta,2013-07-21 21:35:00,
2013-07-21 17:40:00,70.5,59.7,29.98,South,180,-999.0,-999.0,68,-99.99,,,-99.99,MetarLogicWeatherSta,2013-07-21 21:40:00,
2013-07-21 17:45:00,70.5,60.0,29.98,SSW,202,-999.0,-999.0,69,-99.99,,,-99.99,MetarLogicWeatherSta,2013-07-21 21:45:00,
2013-07-21 17:50:00,70.4,60.1,29.98,South,180,-999.0,-999.0,69,-99.99,,,-99.99,MetarLogicWeatherSta,2013-07-21 21:50:00,
2013-07-21 17:56:00,70.4,60.5,29.98,SE,135,-999.0,-999.0,70,-99.99,,,-99.99,MetarLogicWeatherSta,2013-07-21 21:56:00,
2013-07-21 18:01:00,70.4,60.2,29.98,SE,135,-999.0,-999.0,69,-99.99,,,-99.99,MetarLogicWeatherSta,2013-07-21 22:01:00,
2013-07-21 18:06:00,70.3,60.4,29.98,SSE,157,-999.0,-999.0,70,-99.99,,,-99.99,MetarLogicWeatherSta,2013-07-21 22:06:00,
2013-07-21 18:11:00,70.0,60.0,29.98,South,180,-999.0,-999.0,70,-99.99,,,-99.99,MetarLogicWeatherSta,2013-07-21 22:11:00,
2013-07-21 18:16:00,69.5,59.5,29.98,SSW,202,-999.0,-999.0,70,-99.99,,,-99.99,MetarLogicWeatherSta,2013-07-21 22:16:00,
2013-07-21 18:21:00,69.5,59.5,29.98,WSW,247,-999.0,-999.0,70,-99.99,,,-99.99,MetarLogicWeatherSta,2013-07-21 22:21:00,
2013-07-21 18:26:00,69.6,60.0,29.98,SSE,157,-999.0,-999.0,71,-99.99,,,-99.99,MetarLogicWeatherSta,2013-07-21 22:26:00,
2013-07-21 18:31:00,69.3,60.1,29.98,South,180,-999.0,-999.0,72,-99.99,,,-99.99,MetarLogicWeatherSta,2013-07-21 22:31:00,
2013-07-21 18:36:00,69.4,60.1,29.98,South,180,-999.0,-999.0,71,-99.99,,,-99.99,MetarLogicWeatherSta,2013-07-21 22:36:00,
2013-07-21 18:41:00,69.4,60.2,29.99,SSE,157,-999.0,-999.0,72,-99.99,,,-99.99,MetarLogicWeatherSta,2013-07-21 22:41:00,
2013-07-21 18:46:00,69.3,59.3,29.98,South,180,-999.0,-999.0,69,-99.99,,,-99.99,MetarLogicWeatherSta,2013-07-21 22:46:00,
2013-07-21 18:51:00,69.1,59.5,29.99,SSE,157,-999.0,-999.0,71,-99.99,,,-99.99,MetarLogicWeatherSta,2013-07-21 22:51:00,
2013-07-21 18:56:00,69.1,59.9,29.99,SSE,157,-999.0,-999.0,72,-99.99,,,-99.99,MetarLogicWeatherSta,2013-07-21 22:56:00,
2013-07-21 19:03:00,69.0,59.7,29.99,South,180,-999.0,-999.0,72,-99.99,,,-99.99,MetarLogicWeatherSta,2013-07-21 23:03:00,
2013-07-21 19:08:00,69.0,59.8,29.99,SSE,157,-999.0,-999.0,72,-99.99,,,-99.99,MetarLogicWeatherSta,2013-07-21 23:08:00,
2013-07-21 19:13:00,68.8,59.4,29.99,East,90,-999.0,-999.0,71,-99.99,,,-99.99,MetarLogicWeatherSta,2013-07-21 23:13:00,
2013-07-21 19:18:00,68.8,59.3,29.99,SSE,157,-999.0,-999.0,71,-99.99,,,-99.99,MetarLogicWeatherSta,2013-07-21 23:18:00,
2013-07-21 19:23:00,69.0,59.4,29.99,East,90,-999.0,-999.0,71,-99.99,,,-99.99,MetarLogicWeatherSta,2013-07-21 23:23:00,
2013-07-21 19:28:00,68.7,58.8,29.98,SSE,157,-999.0,-999.0,70,-99.99,,,-99.99,MetarLogicWeatherSta,2013-07-21 23:28:00,
2013-07-21 19:33:00,68.7,58.9,29.99,South,180,-999.0,-999.0,70,-99.99,,,-99.99,MetarLogicWeatherSta,2013-07-21 23:33:00,
2013-07-21 19:38:00,68.5,59.2,29.99,SSE,157,-999.0,-999.0,71,-99.99,,,-99.99,MetarLogicWeatherSta,2013-07-21 23:38:00,
2013-07-21 19:43:00,68.1,58.9,29.99,SSE,157,-999.0,-999.0,72,-99.99,,,-99.99,MetarLogicWeatherSta,2013-07-21 23:43:00,
2013-07-21 19:48:00,68.0,59.0,29.99,South,180,-999.0,-999.0,72,-99.99,,,-99.99,MetarLogicWeatherSta,2013-07-21 23:48:00,
2013-07-21 19:53:00,67.6,58.7,29.99,SSE,157,-999.0,-999.0,72,-99.99,,,-99.99,MetarLogicWeatherSta,2013-07-21 23:53:00,
2013-07-21 19:58:00,67.5,58.7,29.99,SSE,157,-999.0,-999.0,73,-99.99,,,-99.99,MetarLogicWeatherSta,2013-07-21 23:58:00,
2013-07-21 20:03:00,66.9,58.4,29.99,South,180,-999.0,-999.0,73,-99.99,,,-99.99,MetarLogicWeatherSta,2013-07-22 00:03:00,
2013-07-21 20:08:00,66.9,58.4,29.99,South,180,-999.0,-999.0,73,-99.99,,,-99.99,MetarLogicWeatherSta,2013-07-22 00:08:00,
2013-07-21 20:13:00,66.6,58.6,29.99,SSE,157,-999.0,-999.0,75,-99.99,,,-99.99,MetarLogicWeatherSta,2013-07-22 00:13:00,
2013-07-21 20:18:00,66.7,58.7,29.99,South,180,-999.0,-999.0,75,-99.99,,,-99.99,MetarLogicWeatherSta,2013-07-22 00:18:00,
2013-07-21 20:23:00,66.3,58.5,29.99,South,180,-999.0,-999.0,75,-99.99,,,-99.99,MetarLogicWeatherSta,2013-07-22 00:23:00,
2013-07-21 20:28:00,66.2,58.3,29.99,South,180,-999.0,-999.0,75,-99.99,,,-99.99,MetarLogicWeatherSta,2013-07-22 00:28:00,
2013-07-21 20:33:00,66.0,58.3,29.99,SSE,157,-999.0,-999.0,76,-99.99,,,-99.99,MetarLogicWeatherSta,2013-07-22 00:33:00,
2013-07-21 20:38:00,65.6,57.9,29.99,SSE,157,-999.0,-999.0,75,-99.99,,,-99.99,MetarLogicWeatherSta,2013-07-22 00:38:00,
2013-07-21 20:43:00,65.4,57.8,29.99,SSE,157,-999.0,-999.0,76,-99.99,,,-99.99,MetarLogicWeatherSta,2013-07-22 00:43:00,
2013-07-21 20:48:00,65.1,57.9,29.99,South,180,-999.0,-999.0,77,-99.99,,,-99.99,MetarLogicWeatherSta,2013-07-22 00:48:00,
2013-07-21 20:53:00,64.9,57.8,29.99,SSE,157,-999.0,-999.0,77,-99.99,,,-99.99,MetarLogicWeatherSta,2013-07-22 00:53:00,
2013-07-21 20:58:00,64.7,57.7,29.99,SSE,157,-999.0,-999.0,77,-99.99,,,-99.99,MetarLogicWeatherSta,2013-07-22 00:58:00,
2013-07-21 21:03:00,64.5,57.6,29.99,SSE,157,-999.0,-999.0,78,-99.99,,,-99.99,MetarLogicWeatherSta,2013-07-22 01:03:00,
2013-07-21 21:08:00,64.3,57.6,29.99,SSE,157,-999.0,-999.0,78,-99.99,,,-99.99,MetarLogicWeatherSta,2013-07-22 01:08:00,
2013-07-21 21:13:00,63.8,57.3,30.00,SSE,157,-999.0,-999.0,79,-99.99,,,-99.99,MetarLogicWeatherSta,2013-07-22 01:13:00,
2013-07-21 21:18:00,63.8,57.4,30.00,SSE,157,-999.0,-999.0,79,-99.99,,,-99.99,MetarLogicWeatherSta,2013-07-22 01:18:00,
2013-07-21 21:23:00,63.3,57.2,30.00,SSE,157,-999.0,-999.0,80,-99.99,,,-99.99,MetarLogicWeatherSta,2013-07-22 01:23:00,
2013-07-21 21:28:00,63.3,57.5,30.00,SSE,157,-999.0,-999.0,80,-99.99,,,-99.99,MetarLogicWeatherSta,2013-07-22 01:28:00,
2013-07-21 21:33:00,63.0,57.3,30.01,SSE,157,-999.0,-999.0,81,-99.99,,,-99.99,MetarLogicWeatherSta,2013-07-22 01:33:00,
2013-07-21 21:38:00,62.7,57.3,30.01,SSE,157,-999.0,-999.0,82,-99.99,,,-99.99,MetarLogicWeatherSta,2013-07-22 01:38:00,
2013-07-21 21:43:00,62.5,57.3,30.01,South,180,-999.0,-999.0,82,-99.99,,,-99.99,MetarLogicWeatherSta,2013-07-22 01:43:00,
2013-07-21 21:48:00,62.3,57.2,30.01,SSE,157,-999.0,-999.0,83,-99.99,,,-99.99,MetarLogicWeatherSta,2013-07-22 01:48:00,
2013-07-21 21:53:00,62.0,57.0,30.01,South,180,-999.0,-999.0,83,-99.99,,,-99.99,MetarLogicWeatherSta,2013-07-22 01:53:00,
2013-07-21 21:58:00,61.6,56.8,30.01,SSE,157,-999.0,-999.0,83,-99.99,,,-99.99,MetarLogicWeatherSta,2013-07-22 01:58:00,
2013-07-21 22:03:00,61.7,56.9,30.01,South,180,-999.0,-999.0,84,-99.99,,,-99.99,MetarLogicWeatherSta,2013-07-22 02:03:00,
2013-07-21 22:08:00,61.7,57.0,30.01,SSE,157,-999.0,-999.0,84,-99.99,,,-99.99,MetarLogicWeatherSta,2013-07-22 02:08:00,
2013-07-21 22:13:00,61.5,57.0,30.01,South,180,-999.0,-999.0,84,-99.99,,,-99.99,MetarLogicWeatherSta,2013-07-22 02:13:00,
2013-07-21 22:18:00,61.2,56.8,30.01,South,180,-999.0,-999.0,85,-99.99,,,-99.99,MetarLogicWeatherSta,2013-07-22 02:18:00,
2013-07-21 22:23:00,61.2,56.8,30.01,South,180,-999.0,-999.0,85,-99.99,,,-99.99,MetarLogicWeatherSta,2013-07-22 02:23:00,
2013-07-21 22:28:00,61.2,57.0,30.01,SSE,157,-999.0,-999.0,85,-99.99,,,-99.99,MetarLogicWeatherSta,2013-07-22 02:28:00,
2013-07-21 22:33:00,60.7,56.6,30.02,SSE,157,-999.0,-999.0,86,-99.99,,,-99.99,MetarLogicWeatherSta,2013-07-22 02:33:00,
2013-07-21 22:38:00,60.6,56.7,30.01,South,180,-999.0,-999.0,87,-99.99,,,-99.99,MetarLogicWeatherSta,2013-07-22 02:38:00,
2013-07-21 22:43:00,60.4,56.7,30.01,South,180,-999.0,-999.0,87,-99.99,,,-99.99,MetarLogicWeatherSta,2013-07-22 02:43:00,
2013-07-21 22:48:00,60.3,56.7,30.01,SSE,157,-999.0,-999.0,87,-99.99,,,-99.99,MetarLogicWeatherSta,2013-07-22 02:48:00,
2013-07-21 22:53:00,60.2,56.8,30.02,SSE,157,-999.0,-999.0,88,-99.99,,,-99.99,MetarLogicWeatherSta,2013-07-22 02:53:00,
2013-07-21 22:58:00,60.6,57.3,30.02,SSE,157,-999.0,-999.0,88,-99.99,,,-99.99,MetarLogicWeatherSta,2013-07-22 02:58:00,
2013-07-21 23:03:00,60.7,57.7,30.02,South,180,-999.0,-999.0,89,-99.99,,,-99.99,MetarLogicWeatherSta,2013-07-22 03:03:00,
2013-07-21 23:10:00,60.9,57.8,30.01,South,180,-999.0,-999.0,89,-99.99,,,-99.99,MetarLogicWeatherSta,2013-07-22 03:10:00,
2013-07-21 23:15:00,60.7,57.8,30.02,SSE,157,-999.0,-999.0,89,-99.99,,,-99.99,MetarLogicWeatherSta,2013-07-22 03:15:00,
2013-07-21 23:22:00,61.0,58.1,30.02,South,180,-999.0,-999.0,90,-99.99,,,-99.99,MetarLogicWeatherSta,2013-07-22 03:22:00,
2013-07-21 23:27:00,60.9,58.1,30.01,South,180,-999.0,-999.0,90,-99.99,,,-99.99,MetarLogicWeatherSta,2013-07-22 03:27:00,
2013-07-21 23:32:00,60.8,57.8,30.01,SSE,157,-999.0,-999.0,89,-99.99,,,-99.99,MetarLogicWeatherSta,2013-07-22 03:32:00,
2013-07-21 23:37:00,60.6,57.7,30.01,SSE,157,-999.0,-999.0,90,-99.99,,,-99.99,MetarLogicWeatherSta,2013-07-22 03:37:00,
2013-07-21 23:42:00,60.6,57.9,30.01,SSE,157,-999.0,-999.0,90,-99.99,,,-99.99,MetarLogicWeatherSta,2013-07-22 03:42:00,
2013-07-21 23:47:00,60.9,58.2,30.01,SSE,157,-999.0,-999.0,90,-99.99,,,-99.99,MetarLogicWeatherSta,2013-07-22 03:47:00,
2013-07-21 23:52:00,60.7,58.2,30.01,SSE,157,-999.0,-999.0,91,-99.99,,,-99.99,MetarLogicWeatherSta,2013-07-22 03:52:00,
2013-07-21 23:57:00,60.7,58.2,30.01,SSE,157,-999.0,-999.0,91,-99.99,,,-99.99,MetarLogicWeatherSta,2013-07-22 03:57:00,